�������l�o���
Date,Time,MP-1(��Sv/h),MP-2(��Sv/h),MP-3(��Sv/h),MP-4(��Sv/h),MP-5(��Sv/h),MP-6(��Sv/h),MP-7(��Sv/h),MP-8(��Sv/h),����,����(m/s),���J
2023/02/13,00:00,0.555,0.796,0.505,1.015,0.699,0.317,0.574,0.549,�k�k��,6.2,��
2023/02/13,00:10,0.553,0.795,0.504,1.015,0.697,0.319,0.574,0.546,�k�k��,6.5,��
2023/02/13,00:20,0.552,0.796,0.505,1.015,0.697,0.318,0.575,0.549,�k�k��,5.9,��
2023/02/13,00:30,0.554,0.795,0.503,1.015,0.698,0.319,0.573,0.549,�k�k��,5.4,��
2023/02/13,00:40,0.555,0.797,0.504,1.016,0.699,0.319,0.573,0.546,�k,5.2,��
2023/02/13,00:50,0.554,0.796,0.505,1.017,0.699,0.318,0.575,0.547,�k,4.2,��
2023/02/13,01:00,0.554,0.795,0.505,1.015,0.699,0.317,0.575,0.548,�k,3.9,��
2023/02/13,01:10,0.554,0.795,0.505,1.015,0.701,0.317,0.575,0.547,�k,4.4,��
2023/02/13,01:20,0.554,0.796,0.505,1.016,0.700,0.318,0.574,0.548,�k,3.9,��
2023/02/13,01:30,0.554,0.796,0.504,1.016,0.699,0.317,0.575,0.548,�k�k��,3.4,��
2023/02/13,01:40,0.555,0.795,0.506,1.017,0.698,0.317,0.573,0.549,�k�k��,4.9,��
2023/02/13,01:50,0.555,0.796,0.504,1.018,0.699,0.318,0.575,0.547,�k�k��,5.4,��
2023/02/13,02:00,0.553,0.795,0.504,1.016,0.699,0.318,0.575,0.547,�k�k��,5.7,��
2023/02/13,02:10,0.555,0.795,0.504,1.018,0.699,0.318,0.574,0.548,�k�k��,5.7,��
2023/02/13,02:20,0.555,0.795,0.505,1.017,0.700,0.318,0.576,0.547,�k�k��,4.8,��
2023/02/13,02:30,0.554,0.796,0.507,1.017,0.700,0.318,0.575,0.548,�k�k��,5.5,��
2023/02/13,02:40,0.553,0.796,0.505,1.016,0.700,0.318,0.574,0.548,�k�k��,5.8,��
2023/02/13,02:50,0.554,0.795,0.505,1.015,0.699,0.319,0.576,0.549,�k,4.7,��
2023/02/13,03:00,0.553,0.797,0.505,1.016,0.700,0.318,0.575,0.548,�k,5.6,��
2023/02/13,03:10,0.552,0.797,0.504,1.014,0.699,0.318,0.574,0.549,�k,7.2,��
2023/02/13,03:20,0.554,0.794,0.506,1.017,0.701,0.318,0.575,0.549,�k,6.2,��
2023/02/13,03:30,0.553,0.796,0.506,1.017,0.700,0.318,0.575,0.548,�k,5.6,��
2023/02/13,03:40,0.556,0.798,0.503,1.016,0.699,0.319,0.575,0.548,�k�k��,5.6,��
2023/02/13,03:50,0.554,0.795,0.506,1.015,0.699,0.318,0.576,0.548,�k�k��,3.9,��
2023/02/13,04:00,0.555,0.796,0.505,1.017,0.700,0.317,0.575,0.548,�k�k��,3.3,��
2023/02/13,04:10,0.554,0.797,0.504,1.019,0.701,0.318,0.574,0.548,�k��,3.1,��
2023/02/13,04:20,0.554,0.796,0.504,1.017,0.699,0.319,0.574,0.548,�k��,2.9,��
2023/02/13,04:30,0.555,0.795,0.505,1.016,0.701,0.318,0.575,0.547,�k��,3.5,��
2023/02/13,04:40,0.554,0.795,0.505,1.013,0.700,0.318,0.575,0.549,�k�k��,3.8,��
2023/02/13,04:50,0.555,0.797,0.506,1.017,0.701,0.317,0.574,0.548,�k�k��,4.5,�L
2023/02/13,05:00,0.554,0.797,0.505,1.016,0.700,0.318,0.576,0.550,�k�k��,5.4,�L
2023/02/13,05:10,0.554,0.796,0.505,1.017,0.700,0.318,0.576,0.549,�k��,5.5,�L
2023/02/13,05:20,0.555,0.795,0.506,1.016,0.700,0.319,0.575,0.548,�k�k��,4.4,�L
2023/02/13,05:30,0.553,0.797,0.504,1.015,0.701,0.319,0.575,0.548,�k��,4.9,�L
2023/02/13,05:40,0.554,0.794,0.506,1.015,0.698,0.319,0.576,0.549,�k��,4.5,��
2023/02/13,05:50,0.554,0.797,0.505,1.018,0.700,0.319,0.575,0.548,�k��,4.0,��
2023/02/13,06:00,0.555,0.795,0.506,1.017,0.700,0.319,0.576,0.549,�k��,4.2,��
2023/02/13,06:10,0.555,0.796,0.505,1.016,0.700,0.317,0.574,0.548,�k��,4.4,��
2023/02/13,06:20,0.554,0.796,0.506,1.014,0.700,0.318,0.576,0.549,�k�k��,5.0,�L
2023/02/13,06:30,0.555,0.796,0.506,1.018,0.699,0.318,0.576,0.548,�k�k��,5.9,�L
2023/02/13,06:40,0.555,0.797,0.505,1.019,0.701,0.318,0.575,0.548,�k�k��,5.9,�L
2023/02/13,06:50,0.557,0.797,0.506,1.017,0.701,0.318,0.575,0.549,�k�k��,6.1,�L
2023/02/13,07:00,0.555,0.797,0.506,1.016,0.700,0.319,0.575,0.549,�k�k��,6.7,�L
2023/02/13,07:10,0.556,0.796,0.507,1.017,0.699,0.318,0.575,0.548,�k�k��,6.3,�L
2023/02/13,07:20,0.553,0.796,0.507,1.015,0.697,0.320,0.576,0.548,�k�k��,6.5,�L
2023/02/13,07:30,0.555,0.794,0.505,1.017,0.699,0.320,0.577,0.548,�k�k��,6.4,�L
2023/02/13,07:40,0.555,0.794,0.505,1.016,0.701,0.320,0.575,0.549,�k�k��,6.6,�L
2023/02/13,07:50,0.554,0.793,0.506,1.016,0.700,0.320,0.576,0.548,�k�k��,6.2,�L
2023/02/13,08:00,0.555,0.792,0.507,1.018,0.699,0.321,0.576,0.549,�k�k��,7.2,�L
2023/02/13,08:10,0.555,0.790,0.506,1.017,0.699,0.321,0.575,0.548,�k�k��,7.3,�L
2023/02/13,08:20,0.554,0.792,0.507,1.014,0.697,0.322,0.575,0.547,�k�k��,6.4,�L
2023/02/13,08:30,0.556,0.790,0.507,1.018,0.698,0.321,0.575,0.548,�k�k��,7.5,�L
2023/02/13,08:40,0.554,0.790,0.506,1.015,0.697,0.322,0.574,0.548,�k�k��,7.0,�L
2023/02/13,08:50,0.553,0.788,0.504,1.015,0.695,0.322,0.576,0.547,�k�k��,7.0,�L
2023/02/13,09:00,0.552,0.786,0.506,1.013,0.693,0.323,0.575,0.546,�k�k��,7.1,�L
2023/02/13,09:10,0.553,0.786,0.502,1.012,0.693,0.321,0.573,0.546,�k�k��,6.4,�L
2023/02/13,09:20,0.550,0.783,0.503,1.012,0.694,0.320,0.575,0.545,�k�k��,7.1,�L
2023/02/13,09:30,0.550,0.780,0.504,1.011,0.693,0.321,0.574,0.545,�k��,6.8,�L
2023/02/13,09:40,0.550,0.780,0.502,1.011,0.691,0.319,0.572,0.544,�k��,6.3,�L
2023/02/13,09:50,0.550,0.784,0.500,1.011,0.691,0.319,0.571,0.545,�k��,7.2,�L
2023/02/13,10:00,0.549,0.780,0.500,1.007,0.690,0.320,0.573,0.545,�k��,6.4,�L
2023/02/13,10:10,0.549,0.782,0.499,1.010,0.692,0.319,0.574,0.542,�k�k��,6.6,�L
2023/02/13,10:20,0.549,0.781,0.499,1.008,0.690,0.319,0.573,0.543,�k�k��,6.2,�L
2023/02/13,10:30,0.547,0.782,0.498,1.010,0.688,0.318,0.573,0.544,�k�k��,5.7,�L
2023/02/13,10:40,0.548,0.781,0.497,1.008,0.691,0.318,0.572,0.542,�k�k��,5.7,�L
2023/02/13,10:50,0.548,0.784,0.497,1.005,0.689,0.318,0.574,0.544,�k��,5.3,�L
2023/02/13,11:00,0.548,0.780,0.496,1.008,0.688,0.317,0.574,0.544,�k�k��,6.1,�L
2023/02/13,11:10,0.549,0.781,0.497,1.007,0.689,0.317,0.574,0.544,�k�k��,8.0,�L
2023/02/13,11:20,0.546,0.782,0.496,1.007,0.691,0.317,0.573,0.544,�k�k��,5.6,�L
2023/02/13,11:30,0.550,0.782,0.497,1.010,0.690,0.317,0.574,0.544,�k�k��,6.1,�L
2023/02/13,11:40,0.548,0.782,0.498,1.010,0.689,0.318,0.574,0.546,�k�k��,7.0,�L
2023/02/13,11:50,0.548,0.784,0.497,1.007,0.689,0.318,0.573,0.544,�k�k��,7.0,�L
2023/02/13,12:00,0.549,0.784,0.498,1.009,0.691,0.317,0.572,0.545,�k�k��,7.1,�L
2023/02/13,12:10,0.548,0.784,0.498,1.007,0.691,0.319,0.574,0.546,�k�k��,7.7,�L
2023/02/13,12:20,0.548,0.783,0.497,1.009,0.691,0.319,0.573,0.546,�k�k��,5.2,�L
2023/02/13,12:30,0.548,0.783,0.496,1.010,0.692,0.318,0.573,0.546,�k�k��,7.1,�L
2023/02/13,12:40,0.548,0.786,0.498,1.009,0.693,0.319,0.572,0.547,�k�k��,7.1,�L
2023/02/13,12:50,0.547,0.787,0.498,1.009,0.691,0.319,0.573,0.546,�k�k��,9.5,�L
2023/02/13,13:00,0.549,0.783,0.498,1.008,0.691,0.318,0.572,0.545,�k�k��,7.8,�L
2023/02/13,13:10,0.549,0.782,0.497,1.009,0.692,0.319,0.573,0.548,�k�k��,8.2,�L
2023/02/13,13:20,0.547,0.784,0.497,1.008,0.691,0.320,0.575,0.545,�k�k��,8.9,�L
2023/02/13,13:30,0.549,0.781,0.497,1.010,0.692,0.320,0.574,0.548,�k�k��,8.5,�L
2023/02/13,13:40,0.548,0.781,0.497,1.010,0.693,0.320,0.576,0.545,�k�k��,8.5,�L
2023/02/13,13:50,0.548,0.781,0.499,1.008,0.692,0.319,0.576,0.545,�k�k��,8.4,�L
2023/02/13,14:00,0.549,0.781,0.496,1.008,0.691,0.318,0.575,0.546,�k�k��,8.6,�L
2023/02/13,14:10,0.548,0.783,0.498,1.010,0.692,0.320,0.575,0.546,�k�k��,9.8,�L
2023/02/13,14:20,0.548,0.783,0.498,1.008,0.692,0.318,0.575,0.546,�k�k��,9.3,�L
2023/02/13,14:30,0.550,0.783,0.499,1.010,0.692,0.320,0.575,0.546,�k�k��,8.6,�L
2023/02/13,14:40,0.549,0.783,0.500,1.010,0.692,0.321,0.576,0.547,�k�k��,7.7,�L
2023/02/13,14:50,0.548,0.781,0.501,1.011,0.693,0.321,0.575,0.546,�k�k��,7.9,�L
2023/02/13,15:00,0.549,0.780,0.499,1.012,0.691,0.321,0.575,0.548,�k�k��,8.3,�L
2023/02/13,15:10,0.550,0.780,0.500,1.010,0.692,0.319,0.576,0.548,�k�k��,7.3,�L
2023/02/13,15:20,0.548,0.782,0.499,1.010,0.692,0.319,0.574,0.546,�k�k��,7.4,�L
2023/02/13,15:30,0.547,0.780,0.499,1.011,0.690,0.321,0.573,0.545,�k�k��,7.6,�L
2023/02/13,15:40,0.546,0.782,0.498,1.008,0.689,0.320,0.575,0.547,�k�k��,8.2,�L
2023/02/13,15:50,0.546,0.779,0.499,1.008,0.693,0.319,0.572,0.546,�k�k��,9.1,�L
2023/02/13,16:00,0.546,0.781,0.496,1.009,0.690,0.319,0.574,0.546,�k�k��,8.1,�L
2023/02/13,16:10,0.547,0.777,0.498,1.006,0.690,0.319,0.574,0.546,�k�k��,8.2,�L
2023/02/13,16:20,0.547,0.780,0.496,1.006,0.688,0.320,0.572,0.546,�k�k��,8.8,�L
2023/02/13,16:30,0.543,0.777,0.494,1.004,0.687,0.320,0.572,0.546,�k�k��,7.3,�L
2023/02/13,16:40,0.545,0.777,0.497,1.004,0.687,0.320,0.572,0.546,�k�k��,7.3,�L
2023/02/13,16:50,0.545,0.776,0.497,1.002,0.686,0.318,0.573,0.546,�k�k��,7.8,�L
2023/02/13,17:00,0.543,0.777,0.496,1.005,0.687,0.320,0.572,0.544,�k�k��,8.5,�L
2023/02/13,17:10,0.546,0.777,0.496,1.003,0.686,0.319,0.571,0.543,�k�k��,8.2,�L
2023/02/13,17:20,0.545,0.776,0.497,1.003,0.684,0.319,0.572,0.543,�k�k��,7.7,�L
2023/02/13,17:30,0.545,0.776,0.497,1.001,0.685,0.317,0.573,0.543,�k�k��,8.6,�L
2023/02/13,17:40,0.546,0.777,0.496,1.001,0.687,0.320,0.572,0.543,�k�k��,7.8,�L
2023/02/13,17:50,0.545,0.778,0.495,1.001,0.685,0.321,0.573,0.545,�k�k��,7.4,�L
2023/02/13,18:00,0.543,0.775,0.497,1.001,0.685,0.318,0.570,0.545,�k�k��,7.4,�L
2023/02/13,18:10,0.543,0.778,0.495,1.002,0.686,0.319,0.571,0.544,�k�k��,6.6,�L
2023/02/13,18:20,0.542,0.776,0.494,1.001,0.685,0.317,0.572,0.544,�k�k��,6.7,�L
2023/02/13,18:30,0.543,0.775,0.494,1.001,0.685,0.316,0.572,0.544,�k�k��,7.0,��
2023/02/13,18:40,0.543,0.775,0.494,1.000,0.686,0.316,0.571,0.544,�k�k��,6.5,��
2023/02/13,18:50,0.542,0.776,0.494,1.001,0.684,0.317,0.571,0.544,�k�k��,6.8,��
2023/02/13,19:00,0.543,0.777,0.492,1.000,0.685,0.318,0.571,0.544,�k�k��,7.8,��
2023/02/13,19:10,0.542,0.775,0.494,0.999,0.686,0.316,0.572,0.543,�k�k��,6.3,��
2023/02/13,19:20,0.542,0.780,0.493,1.000,0.684,0.316,0.572,0.545,�k�k��,6.8,��
2023/02/13,19:30,0.543,0.778,0.494,0.999,0.685,0.316,0.571,0.544,�k�k��,7.2,��
2023/02/13,19:40,0.542,0.777,0.494,1.000,0.684,0.316,0.571,0.543,�k�k��,7.7,��
2023/02/13,19:50,0.543,0.776,0.493,1.000,0.684,0.315,0.572,0.544,�k�k��,7.3,��
2023/02/13,20:00,0.542,0.777,0.493,1.001,0.685,0.315,0.570,0.545,�k�k��,6.7,��
2023/02/13,20:10,0.542,0.780,0.492,1.000,0.686,0.316,0.572,0.546,�k�k��,5.9,��
2023/02/13,20:20,0.542,0.778,0.495,1.001,0.684,0.315,0.571,0.544,�k��,6.3,��
2023/02/13,20:30,0.543,0.778,0.493,1.001,0.684,0.315,0.571,0.544,�k�k��,7.4,��
2023/02/13,20:40,0.542,0.778,0.494,1.001,0.685,0.316,0.574,0.543,�k�k��,5.9,��
2023/02/13,20:50,0.541,0.777,0.495,1.003,0.688,0.316,0.572,0.543,�k�k��,8.3,��
2023/02/13,21:00,0.542,0.779,0.492,1.001,0.685,0.315,0.572,0.544,�k�k��,7.1,��
2023/02/13,21:10,0.543,0.778,0.494,1.000,0.687,0.316,0.571,0.544,�k�k��,7.3,��
2023/02/13,21:20,0.543,0.778,0.493,1.002,0.686,0.315,0.572,0.543,�k�k��,6.8,��
2023/02/13,21:30,0.543,0.779,0.495,1.004,0.686,0.313,0.572,0.543,�k�k��,7.3,��
2023/02/13,21:40,0.545,0.775,0.494,1.001,0.686,0.316,0.572,0.543,�k�k��,7.3,��
2023/02/13,21:50,0.545,0.779,0.494,1.000,0.685,0.316,0.573,0.544,�k�k��,9.0,��
2023/02/13,22:00,0.543,0.778,0.495,1.003,0.687,0.317,0.573,0.546,�k�k��,8.3,��
2023/02/13,22:10,0.544,0.780,0.494,1.002,0.687,0.316,0.572,0.544,�k�k��,9.7,��
2023/02/13,22:20,0.543,0.778,0.493,1.003,0.688,0.316,0.572,0.544,�k�k��,10.8,��
2023/02/13,22:30,0.545,0.778,0.493,1.005,0.686,0.316,0.572,0.545,�k�k��,12.7,��
2023/02/13,22:40,0.543,0.780,0.494,1.002,0.689,0.315,0.573,0.544,�k��,10.8,��
2023/02/13,22:50,0.544,0.780,0.494,1.001,0.688,0.315,0.574,0.544,�k�k��,8.8,��
2023/02/13,23:00,0.544,0.780,0.494,1.004,0.687,0.314,0.572,0.543,�k�k��,8.1,��
2023/02/13,23:10,0.543,0.781,0.494,1.003,0.687,0.315,0.573,0.544,�k�k��,5.7,��
2023/02/13,23:20,0.543,0.780,0.495,1.002,0.686,0.316,0.573,0.544,�k�k��,7.2,��
2023/02/13,23:30,0.547,0.778,0.495,1.003,0.688,0.316,0.572,0.544,�k�k��,7.7,��
2023/02/13,23:40,0.544,0.782,0.494,1.003,0.689,0.316,0.573,0.545,�k�k��,8.4,��
2023/02/13,23:50,0.545,0.779,0.493,1.003,0.687,0.317,0.573,0.545,�k�k��,10.5,��
